Погода в Дмитровском Погосте

Россия / Московская область     55°19′02″N   39°49′35″E
темп.,
°C
ветер,
м/с
пор.,
м/с
влажн.,
%
обл.,
%
осадки,
мм/ч
давл.,
гПа
погр.,
м
6 марта, сб
сб600:00−10зсз22890 0.0 101521
03:00−12зсз12910 0.0 101621
06:00−12зсз22930 0.0 101521
09:00−10сз23910 0.0 1016166
12:00−5сз357941 0.0 1016795
15:00−4зсз246970 0.3 10151126
18:00−8з2388100 0.3 101554
21:00−11з239381 0.3 101577
7 марта, вс
вс700:00−12зюз23922 0.0 101373
03:00−12ююз39921 0.0 1011204
06:00−9ююз5138481 0.0 1006498
09:00−8ююз7139290 0.9 1002869
12:00−4юз71492100 1.9 9971137
15:00−2юз71494100 4.6 9931170
18:00−5зсз61477100 1.9 9931200
21:00−9зюз4108167 1.9 996250
8 марта, пн
пн800:00−9юз389467 0.1 996274
03:00−6зюз4119483 1.6 996796
06:00−9з259699 0.3 995130
09:00−9зсз259392 0.3 997242
12:00−6зсз587991 0.1 999821
15:00−6зсз598495 0.2 10021095
18:00−8сз4989100 0.3 1005730
21:00−12сз3109281 0.3 1009287
9 марта, вт
вт900:00−15сз25963 0.0 1011124
03:00−17ссз23973 0.0 101367
06:00−19ссз23980 0.0 101535
09:00−16ссз24931 0.0 1017232
12:00−12ссз238187 0.0 1017613
15:00−11ссз358193 0.1 1018869
18:00−14ссз2392100 0.1 101964
21:00−18с2397100 0.1 102232
10 марта, ср
ср1000:00−21с239980 0.0 102327
03:00−24ссз229848 0.0 102420
06:00−25ссз119717 0.0 102420
09:00−20в019052 0.0 1025138
12:00−15юв1178100 0.0 1025384
15:00−13вюв2275100 0.0 1024538
18:00−16вюв228868 0.0 102320
21:00−19вюв239441 0.0 102524